Regional Weather Roundup
Issued by NWS Portland, ME

Home | Current Version | Previous Version | Text Only | Print | Product List | Glossary On
Versions: 1 2 3 4 5 6 7 8 9 10 11 12 13 14 15 16 17 18 19 20 21 22 23 24 25 26 27 28 29 30 31 32 33 34 35 36 37 38 39 40 41 42 43 44 45 46 47 48 49 50
000
ASUS41 KGYX 040810
RWRGYX
WEATHER ROUNDUP FOR MAINE AND NEW HAMPSHIRE
NATIONAL WEATHER SERVICE GRAY ME
400 AM EDT TUE AUG 04 2015

MEZ002-005-006-010-012-015-018-020-021-024-026-027-029-040900-
MAINE

CITY           SKY/WX    TMP DP  RH WIND       PRES   REMARKS
PORTLAND       PTCLDY    64  64 100 CALM      29.80R
SANFORD        PTCLDY    61  57  88 SW3       29.81S
BAR HARBOR     PTCLDY    64  64 100 CALM      29.82S
WISCASSET      PTCLDY    64  63  96 CALM      29.82R FOG
ROCKLAND       MOCLDY    63  61  94 CALM      29.80S
FRYEBURG       MOCLDY    61  61 100 CALM      29.81S
LEWISTONAUBURN MOCLDY    63  61  94 CALM      29.81R
AUGUSTA        PTCLDY    64  63  96 CALM      29.80S
WATERVILLE     PTCLDY    63  59  88 CALM      29.78S
BANGOR         MOCLDY    65  65 100 S5        29.80R
GREENVILLE       N/A     59  58  96 CALM      29.81R
MILLINOCKET    MOCLDY    63  61  93 NW3       29.80S FOG
HOULTON        CLOUDY    65  63  93 S6        29.78R
PRESQUE ISLE   CLEAR     61  57  88 S3        29.77S
FRENCHVILLE    CLEAR     60  59  96 S6        29.76S
CARIBOU        CLEAR     61  59  93 S3        29.76S
$$

NHZ002-005-008-009-011-012-014-040900-
NEW HAMPSHIRE

CITY           SKY/WX    TMP DP  RH WIND       PRES   REMARKS
PORTSMOUTH     PTCLDY    67  65  92 W5        29.79S
ROCHESTER      CLEAR     63  61  93 CALM      29.81R FOG
NASHUA         PTCLDY    71  68  90 CALM      29.82R
MANCHESTER     MOCLDY    72  68  87 S5        29.80R
CONCORD        FOG       64  63  96 CALM      29.82R VSB 1/4
LACONIA        PTCLDY    64  61  88 W5        29.81S
PLYMOUTH       FOG       63  63 100 CALM      29.82R VSB 3/4
BERLIN         FOG       56  55  97 CALM      29.83S VSB 1/4
WHITEFIELD     FOG       57  55  93 CALM      29.82S VSB 1/4
JAFFREY        MOCLDY    65  64  97 CALM      29.85S
KEENE          CLOUDY    64  57  77 CALM      29.84R
LEBANON        CLOUDY    65  63  93 CALM      29.81R FOG
MT WASHINGTON  FOG       48  48 100 W25         N/A  VSB 1/16
$$

VTZ005-007-008-040900-
VERMONT

CITY           SKY/WX    TMP DP  RH WIND       PRES   REMARKS
ST JOHNSBURY     N/A     61  58  90 MISG      29.80R
MONTPELIER     MOCLDY    60  58  92 CALM      29.85S
$$

MAZ007-012-024-CTZ003-RIZ002-NYZ038-NYZ072-040900-
SOUTHERN NEW ENGLAND AND NY

CITY           SKY/WX    TMP DP  RH WIND       PRES   REMARKS
BOSTON         PTCLDY    74  70  87 SW8       29.82R
WORCESTER      MOCLDY    69  67  93 SW8       29.86S FOG
NANTUCKET      CLOUDY    72  70  93 SW9       29.86S FOG
PROVIDENCE     CLEAR     75  72  90 SW9       29.83S
HARTFORD       CLOUDY    73  70  90 SE3       29.80F
ALBANY         CLOUDY    68  66  93 S5        29.83R
NEW YORK CITY  TSTM      79  65  62 W14G22    29.81S
$$

ANZ081-ANZ082-ANZ150-NHZ014-MEZ023>029-040900-
COASTAL MARINE OBSERVATIONS

STATION/POSITION TIME  TEMP    WIND        PRES    WAVE
                       AIR SEA DIR/SP/G            HT/PER
                 (UTC) (F)     (DEG/KT/KT) (MB)    (FT/S)
MOUNT DESERT ROC 0800   60     190/ 14/ 14 1009.8R
MATINICUS ROCK   0700   63     220/ 20/ 20 1008.9R
ISLE OF SHOALS   0700   73     230/ 13/ 13 1008.5R
JEFFREYS LEDGE   0703      65                N/A     3/ 5
CASHES LEDGE BUO 0750   67                 1009.3R   3/ 5
GEORGES BANK BUO 0750   69 66  210/  6/  8 1013.4R   4/ 8
$$

.............KEY..............
   WCI - WIND CHILL
   TC  - TEMPERATURE IN CELSIUS
   VSB - VISIBILITY IN MILES
   HX  - HEAT INDEX
   FAIR- INDICATES FEW OR NO CLOUDS BELOW 12,000 FT, WITH NO
         SIGNIFICANT WEATHER AND/OR OBSTRUCTIONS TO VISIBILITY.




USA.gov is the U.S. government's official web portal to all federal, state and local government web resources and services.